,,Stat5,,Stat1,,Stat2,,Stat3,,Stat4,,Wind1,,Wind1,
time,status,PA1M_AVG,status,PR1M_SUM,status,RH1M_AVG,status,SR1M_AVG,status,TA1M_AVG,status,W1dAve1m,status,W1sAve1m,
2000-09-20, 00:00:00,VALID,916.937,VALID,0,VALID,97.2421,VALID,0.0339617,VALID,19.5357,VALID,228,VALID,0.980997,
2000-09-20, 00:01:00,VALID,916.937,VALID,0,VALID,97.2498,VALID,0.0169808,VALID,19.5392,VALID,231,VALID,1.0625,
2000-09-20, 00:02:00,VALID,916.914,VALID,0,VALID,97.3146,VALID,0,VALID,19.5389,VALID,228,VALID,0.928043,
2000-09-20, 00:03:00,VALID,916.884,VALID,0.2,VALID,97.3286,VALID,0.0169808,VALID,19.5191,VALID,231,VALID,1.45271,
2000-09-20, 00:04:00,VALID,916.85,VALID,0,VALID,97.368,VALID,0,VALID,19.5101,VALID,247,VALID,0.864453,
2000-09-20, 00:05:00,VALID,916.821,VALID,0,VALID,97.4024,VALID,-0.0169808,VALID,19.5198,VALID,245,VALID,1.09049,
2000-09-20, 00:06:00,VALID,916.784,VALID,0,VALID,97.4227,VALID,0.0169808,VALID,19.5101,VALID,239,VALID,1.06609,
2000-09-20, 00:07:00,VALID,916.762,VALID,0,VALID,97.452,VALID,0.0169808,VALID,19.5099,VALID,223,VALID,1.33923,
2000-09-20, 00:08:00,VALID,916.737,VALID,0,VALID,97.4469,VALID,0.0339617,VALID,19.5032,VALID,231,VALID,1.39962,
2000-09-20, 00:09:00,VALID,916.731,VALID,0,VALID,97.4176,VALID,0,VALID,19.5004,VALID,227,VALID,1.93894,
2000-09-20, 00:10:00,VALID,916.701,VALID,0,VALID,97.3579,VALID,0,VALID,19.5007,VALID,226,VALID,1.99141,
2000-09-20, 00:11:00,VALID,916.701,VALID,0,VALID,97.2803,VALID,0,VALID,19.5034,VALID,225,VALID,2.37068,
2000-09-20, 00:12:00,VALID,916.684,VALID,0,VALID,97.2307,VALID,0.0339617,VALID,19.5163,VALID,226,VALID,1.59745,
2000-09-20, 00:13:00,VALID,916.679,VALID,0,VALID,97.1964,VALID,0.0339617,VALID,19.5161,VALID,223,VALID,2.397,
2000-09-20, 00:14:00,VALID,916.639,VALID,0,VALID,97.1989,VALID,0.0339617,VALID,19.5066,VALID,230,VALID,1.94972,
2000-09-20, 00:15:00,VALID,916.627,VALID,0,VALID,97.2256,VALID,0,VALID,19.497,VALID,225,VALID,1.95967,
2000-09-20, 00:16:00,VALID,916.607,VALID,0,VALID,97.2892,VALID,0,VALID,19.4905,VALID,228,VALID,2.01645,
2000-09-20, 00:17:00,VALID,916.606,VALID,0,VALID,97.3553,VALID,0,VALID,19.4748,VALID,232,VALID,1.40566,
2000-09-20, 00:18:00,VALID,916.593,VALID,0,VALID,97.3973,VALID,0,VALID,19.4716,VALID,209,VALID,2.17752,
2000-09-20, 00:19:00,VALID,916.584,VALID,0,VALID,97.4456,VALID,0,VALID,19.4582,VALID,228,VALID,2.04645,
2000-09-20, 00:20:00,VALID,916.594,VALID,0,VALID,97.4418,VALID,0.0169808,VALID,19.4487,VALID,211,VALID,2.28002,
2000-09-20, 00:21:00,VALID,916.582,VALID,0,VALID,97.438,VALID,0.0169808,VALID,19.4351,VALID,225,VALID,1.65982,
2000-09-20, 00:22:00,VALID,916.578,VALID,0,VALID,97.4036,VALID,0,VALID,19.4515,VALID,229,VALID,1.72002,
2000-09-20, 00:23:00,VALID,916.561,VALID,0,VALID,97.3922,VALID,0.0169808,VALID,19.4584,VALID,233,VALID,1.66221,
2000-09-20, 00:24:00,VALID,916.538,VALID,0,VALID,97.3413,VALID,0.0169808,VALID,19.4647,VALID,229,VALID,2.4846,
2000-09-20, 00:25:00,VALID,916.533,VALID,0,VALID,97.2803,VALID,0.0169808,VALID,19.4778,VALID,234,VALID,2.01823,
2000-09-20, 00:26:00,VALID,916.522,VALID,0,VALID,97.1976,VALID,0.0339617,VALID,19.4843,VALID,213,VALID,1.86979,
2000-09-20, 00:27:00,VALID,916.514,VALID,0,VALID,97.1531,VALID,0.0169808,VALID,19.4811,VALID,222,VALID,1.59354,
2000-09-20, 00:28:00,VALID,916.499,VALID,0,VALID,97.1277,VALID,0,VALID,19.4873,VALID,234,VALID,1.57155,
2000-09-20, 00:29:00,VALID,916.485,VALID,0,VALID,97.1137,VALID,0.0169808,VALID,19.5039,VALID,227,VALID,1.52238,
2000-09-20, 00:30:00,VALID,916.49,VALID,0,VALID,97.1417,VALID,0.0169808,VALID,19.4905,VALID,226,VALID,1.16699,
2000-09-20, 00:31:00,VALID,916.496,VALID,0,VALID,97.1506,VALID,0,VALID,19.4937,VALID,210,VALID,0.998197,
2000-09-20, 00:32:00,VALID,916.504,VALID,0,VALID,97.19,VALID,0.0339617,VALID,19.4873,VALID,219,VALID,1.08934,
2000-09-20, 00:33:00,VALID,916.506,VALID,0,VALID,97.2332,VALID,0.0169808,VALID,19.4709,VALID,212,VALID,1.29497,
2000-09-20, 00:34:00,VALID,916.498,VALID,0,VALID,97.2561,VALID,0.0169808,VALID,19.4783,VALID,208,VALID,1.6899,
2000-09-20, 00:35:00,VALID,916.504,VALID,0,VALID,97.2828,VALID,0.0339617,VALID,19.4711,VALID,221,VALID,1.22312,
2000-09-20, 00:36:00,VALID,916.486,VALID,0,VALID,97.2981,VALID,0.0679233,VALID,19.4674,VALID,224,VALID,0.991406,
2000-09-20, 00:37:00,VALID,916.463,VALID,0,VALID,97.3083,VALID,0.0339617,VALID,19.4676,VALID,228,VALID,1.0331,
2000-09-20, 00:38:00,VALID,916.471,VALID,0,VALID,97.2956,VALID,0,VALID,19.4778,VALID,220,VALID,1.22316,
2000-09-20, 00:39:00,VALID,916.467,VALID,0,VALID,97.2841,VALID,0.0509425,VALID,19.4711,VALID,214,VALID,1.44799,
2000-09-20, 00:40:00,VALID,916.477,VALID,0,VALID,97.2345,VALID,0,VALID,19.4811,VALID,233,VALID,1.67813,
2000-09-20, 00:41:00,VALID,916.449,VALID,0,VALID,97.2129,VALID,0.0509425,VALID,19.4875,VALID,229,VALID,1.35,
2000-09-20, 00:42:00,VALID,916.453,VALID,0,VALID,97.1798,VALID,0,VALID,19.4937,VALID,235,VALID,1.67208,
2000-09-20, 00:43:00,VALID,916.438,VALID,0,VALID,97.1849,VALID,-0.0169808,VALID,19.491,VALID,234,VALID,1.44593,
2000-09-20, 00:44:00,VALID,916.408,VALID,0,VALID,97.1709,VALID,-0.0169808,VALID,19.4848,VALID,223,VALID,2.24179,
2000-09-20, 00:45:00,VALID,916.391,VALID,0,VALID,97.1709,VALID,0.0339617,VALID,19.4808,VALID,230,VALID,1.35737,
2000-09-20, 00:46:00,VALID,916.365,VALID,0,VALID,97.1709,VALID,0,VALID,19.484,VALID,224,VALID,1.83868,
2000-09-20, 00:47:00,VALID,916.357,VALID,0,VALID,97.1277,VALID,0.0169808,VALID,19.4746,VALID,218,VALID,1.38762,
2000-09-20, 00:48:00,VALID,916.337,VALID,0,VALID,97.0984,VALID,0,VALID,19.4743,VALID,220,VALID,1.92448,
2000-09-20, 00:49:00,VALID,916.328,VALID,0,VALID,97.0629,VALID,0,VALID,19.4746,VALID,224,VALID,1.69466,
2000-09-20, 00:50:00,VALID,916.296,VALID,0,VALID,97.0082,VALID,0.0169808,VALID,19.4778,VALID,228,VALID,2.07272,
2000-09-20, 00:51:00,VALID,916.284,VALID,0,VALID,96.8836,VALID,0,VALID,19.4977,VALID,236,VALID,1.64992,
2000-09-20, 00:52:00,VALID,916.267,VALID,0,VALID,96.7945,VALID,0.0169808,VALID,19.5168,VALID,223,VALID,1.89964,
2000-09-20, 00:53:00,VALID,916.244,VALID,0,VALID,96.6788,VALID,0.0169808,VALID,19.5171,VALID,222,VALID,1.50781,
2000-09-20, 00:54:00,VALID,916.228,VALID,0,VALID,96.5771,VALID,-0.0169808,VALID,19.5101,VALID,223,VALID,1.87138,
2000-09-20, 00:55:00,VALID,916.219,VALID,0,VALID,96.5275,VALID,0,VALID,19.5335,VALID,226,VALID,1.72175,
2000-09-20, 00:56:00,VALID,916.226,VALID,0,VALID,96.469,VALID,0,VALID,19.5399,VALID,227,VALID,2.01267,
2000-09-20, 00:57:00,VALID,916.219,VALID,0,VALID,96.3978,VALID,0,VALID,19.5293,VALID,225,VALID,1.8771,
2000-09-20, 00:58:00,VALID,916.209,VALID,0,VALID,96.305,VALID,0,VALID,19.5524,VALID,224,VALID,1.45493,
2000-09-20, 00:59:00,VALID,916.207,VALID,0,VALID,96.2338,VALID,0,VALID,19.5524,VALID,225,VALID,1.71938,
2000-09-20, 01:00:00,VALID,916.209,VALID,0,VALID,96.1854,VALID,0.0169808,VALID,19.5551,VALID,228,VALID,1.07939,
2000-09-20, 01:01:00,VALID,916.215,VALID,0,VALID,96.2147,VALID,0.0339617,VALID,19.5653,VALID,218,VALID,0.657051,
2000-09-20, 01:02:00,VALID,916.222,VALID,0,VALID,96.2655,VALID,0.0169808,VALID,19.5486,VALID,222,VALID,0.784697,
2000-09-20, 01:03:00,VALID,916.245,VALID,0,VALID,96.2986,VALID,0.0169808,VALID,19.5457,VALID,201,VALID,0.231641,
2000-09-20, 01:04:00,VALID,916.262,VALID,0,VALID,96.3266,VALID,0,VALID,19.526,VALID,201,VALID,0,
2000-09-20, 01:05:00,VALID,916.272,VALID,0,VALID,96.4143,VALID,0,VALID,19.5163,VALID,262,VALID,0.0531684,
2000-09-20, 01:06:00,VALID,916.267,VALID,0,VALID,96.497,VALID,0,VALID,19.5042,VALID,295,VALID,0.132196,
2000-09-20, 01:07:00,VALID,916.263,VALID,0,VALID,96.5402,VALID,0,VALID,19.5106,VALID,269,VALID,0.0849609,
2000-09-20, 01:08:00,VALID,916.266,VALID,0,VALID,96.5707,VALID,0,VALID,19.4972,VALID,225,VALID,0,
2000-09-20, 01:09:00,VALID,916.266,VALID,0,VALID,96.6063,VALID,0.0339617,VALID,19.4905,VALID,123,VALID,0,
2000-09-20, 01:10:00,VALID,916.259,VALID,0,VALID,96.6089,VALID,0,VALID,19.4711,VALID,111,VALID,0,
2000-09-20, 01:11:00,VALID,916.254,VALID,0,VALID,96.6,VALID,0,VALID,19.4483,VALID,123,VALID,0.756811,
2000-09-20, 01:12:00,VALID,916.237,VALID,0,VALID,96.6534,VALID,0,VALID,19.4266,VALID,100,VALID,0.710938,
2000-09-20, 01:13:00,VALID,916.218,VALID,0,VALID,96.7246,VALID,0.0339617,VALID,19.4135,VALID,95,VALID,0.554905,
2000-09-20, 01:14:00,VALID,916.2,VALID,0,VALID,96.7755,VALID,0,VALID,19.3839,VALID,98,VALID,0.453526,
2000-09-20, 01:15:00,VALID,916.205,VALID,0,VALID,96.8314,VALID,0.0169808,VALID,19.3712,VALID,104,VALID,0.607052,
2000-09-20, 01:16:00,VALID,916.202,VALID,0,VALID,96.9077,VALID,0,VALID,19.3521,VALID,91,VALID,0.349029,
2000-09-20, 01:17:00,VALID,916.199,VALID,0,VALID,96.9713,VALID,-0.0169808,VALID,19.3327,VALID,74,VALID,0.306212,
2000-09-20, 01:18:00,VALID,916.196,VALID,0,VALID,96.9993,VALID,0,VALID,19.3168,VALID,51,VALID,0.0536318,
2000-09-20, 01:19:00,VALID,916.184,VALID,0,VALID,97.0921,VALID,0.0169808,VALID,19.2877,VALID,51,VALID,0.000976563,
2000-09-20, 01:20:00,VALID,916.154,VALID,0,VALID,97.1926,VALID,0,VALID,19.2775,VALID,51,VALID,0.0188301,
2000-09-20, 01:21:00,VALID,916.149,VALID,0,VALID,97.3324,VALID,0,VALID,19.2783,VALID,51,VALID,0,
2000-09-20, 01:22:00,VALID,916.148,VALID,0,VALID,97.4329,VALID,0.0169808,VALID,19.2616,VALID,21,VALID,0,
2000-09-20, 01:23:00,VALID,916.14,VALID,0,VALID,97.5181,VALID,0,VALID,19.2385,VALID,305,VALID,0,
2000-09-20, 01:24:00,VALID,916.131,VALID,0,VALID,97.5944,VALID,-0.0169808,VALID,19.2296,VALID,258,VALID,0.129012,
2000-09-20, 01:25:00,VALID,916.111,VALID,0,VALID,97.705,VALID,0.0339617,VALID,19.2159,VALID,221,VALID,0.47168,
2000-09-20, 01:26:00,VALID,916.1,VALID,0,VALID,97.7927,VALID,-0.0169808,VALID,19.2264,VALID,236,VALID,0.432943,
2000-09-20, 01:27:00,VALID,916.091,VALID,0,VALID,97.8156,VALID,0,VALID,19.2067,VALID,206,VALID,0.384291,
2000-09-20, 01:28:00,VALID,916.075,VALID,0,VALID,97.8589,VALID,0.0339617,VALID,19.2003,VALID,205,VALID,0.214638,
2000-09-20, 01:29:00,VALID,916.061,VALID,0,VALID,97.9046,VALID,0,VALID,19.2,VALID,204,VALID,0.0179924,
2000-09-20, 01:30:00,VALID,916.038,VALID,0,VALID,97.9326,VALID,-0.101885,VALID,19.1915,VALID,204,VALID,0.014597,
2000-09-20, 01:31:00,VALID,916.022,VALID,0,VALID,97.9288,VALID,-0.0679233,VALID,19.1754,VALID,204,VALID,0.0195313,
2000-09-20, 01:32:00,VALID,916.012,VALID,0,VALID,97.9479,VALID,-0.101885,VALID,19.159,VALID,185,VALID,0.113692,
2000-09-20, 01:33:00,VALID,916.001,VALID,0,VALID,97.967,VALID,-0.101885,VALID,19.1692,VALID,185,VALID,0.0207648,
2000-09-20, 01:34:00,VALID,915.99,VALID,0,VALID,97.9492,VALID,-0.0679233,VALID,19.1565,VALID,185,VALID,0.0509868,
2000-09-20, 01:35:00,VALID,915.984,VALID,0,VALID,97.9784,VALID,-0.101885,VALID,19.1433,VALID,174,VALID,0.376202,
2000-09-20, 01:36:00,VALID,915.967,VALID,0,VALID,98.0661,VALID,-0.0849042,VALID,19.1667,VALID,166,VALID,0.482897,
2000-09-20, 01:37:00,VALID,915.957,VALID,0,VALID,98.0878,VALID,-0.101885,VALID,19.1759,VALID,182,VALID,0.200041,
2000-09-20, 01:38:00,VALID,915.947,VALID,0,VALID,98.0318,VALID,-0.101885,VALID,19.1791,VALID,156,VALID,0.301172,
2000-09-20, 01:39:00,VALID,915.938,VALID,0,VALID,97.9733,VALID,-0.101885,VALID,19.1928,VALID,150,VALID,0.375868,
2000-09-20, 01:40:00,VALID,915.921,VALID,0,VALID,97.9021,VALID,-0.101885,VALID,19.1858,VALID,144,VALID,0.352196,
2000-09-20, 01:41:00,VALID,915.901,VALID,0,VALID,97.8538,VALID,-0.0679233,VALID,19.1793,VALID,158,VALID,0.287623,
2000-09-20, 01:42:00,VALID,915.879,VALID,0,VALID,97.85,VALID,-0.0849042,VALID,19.1798,VALID,196,VALID,0.325893,
2000-09-20, 01:43:00,VALID,915.869,VALID,0,VALID,97.8156,VALID,-0.0849042,VALID,19.1761,VALID,241,VALID,0.645693,
2000-09-20, 01:44:00,VALID,915.864,VALID,0,VALID,97.8945,VALID,-0.0849042,VALID,19.1759,VALID,230,VALID,0.914474,
2000-09-20, 01:45:00,VALID,915.85,VALID,0,VALID,97.9186,VALID,-0.101885,VALID,19.1863,VALID,239,VALID,0.677679,
2000-09-20, 01:46:00,VALID,915.851,VALID,0,VALID,97.9403,VALID,-0.0849042,VALID,19.1957,VALID,236,VALID,0.619992,
2000-09-20, 01:47:00,VALID,915.857,VALID,0,VALID,97.9428,VALID,-0.101885,VALID,19.1962,VALID,229,VALID,0.46224,
2000-09-20, 01:48:00,VALID,915.846,VALID,0,VALID,97.9288,VALID,-0.101885,VALID,19.1965,VALID,205,VALID,0.225946,
2000-09-20, 01:49:00,VALID,915.842,VALID,0,VALID,97.9288,VALID,-0.0849042,VALID,19.1895,VALID,207,VALID,0.3419,
2000-09-20, 01:50:00,VALID,915.833,VALID,0,VALID,97.9441,VALID,-0.101885,VALID,19.16,VALID,216,VALID,0.349029,
2000-09-20, 01:51:00,VALID,915.828,VALID,0,VALID,97.9822,VALID,-0.135847,VALID,19.1637,VALID,229,VALID,0.582422,
2000-09-20, 01:52:00,VALID,915.811,VALID,0,VALID,98.0356,VALID,-0.101885,VALID,19.1602,VALID,219,VALID,0.402444,
2000-09-20, 01:53:00,VALID,915.808,VALID,0,VALID,98.0572,VALID,-0.135847,VALID,19.1508,VALID,213,VALID,0,
2000-09-20, 01:54:00,VALID,915.781,VALID,0,VALID,98.0954,VALID,-0.101885,VALID,19.1339,VALID,216,VALID,0,
2000-09-20, 01:55:00,VALID,915.784,VALID,0,VALID,98.1221,VALID,-0.0849042,VALID,19.1277,VALID,227,VALID,0,
2000-09-20, 01:56:00,VALID,915.775,VALID,0,VALID,98.1488,VALID,-0.101885,VALID,19.1182,VALID,234,VALID,0,
2000-09-20, 01:57:00,VALID,915.769,VALID,0,VALID,98.173,VALID,-0.101885,VALID,19.1187,VALID,236,VALID,0,
2000-09-20, 01:58:00,VALID,915.76,VALID,0,VALID,98.2124,VALID,-0.101885,VALID,19.1055,VALID,234,VALID,0,
2000-09-20, 01:59:00,VALID,915.761,VALID,0,VALID,98.248,VALID,-0.101885,VALID,19.0958,VALID,227,VALID,0,
2000-09-20, 02:00:00,VALID,915.761,VALID,0,VALID,98.2721,VALID,0,VALID,19.0778,VALID,222,VALID,0,
2000-09-20, 02:01:00,VALID,915.764,VALID,0,VALID,98.3027,VALID,-0.0169808,VALID,19.0812,VALID,222,VALID,0,
2000-09-20, 02:02:00,VALID,915.768,VALID,0,VALID,98.2518,VALID,0.0169808,VALID,19.0455,VALID,176,VALID,0,
2000-09-20, 02:03:00,VALID,915.775,VALID,0,VALID,98.178,VALID,0,VALID,18.9906,VALID,121,VALID,0,
2000-09-20, 02:04:00,VALID,915.772,VALID,0,VALID,98.1043,VALID,0,VALID,18.9357,VALID,110,VALID,0,
2000-09-20, 02:05:00,VALID,915.779,VALID,0,VALID,98.1691,VALID,0,VALID,18.9235,VALID,109,VALID,0,
2000-09-20, 02:06:00,VALID,915.777,VALID,0,VALID,98.1552,VALID,0,VALID,18.8778,VALID,107,VALID,0.32512,
2000-09-20, 02:07:00,VALID,915.79,VALID,0,VALID,98.2645,VALID,-0.0169808,VALID,18.8581,VALID,103,VALID,0.920186,
2000-09-20, 02:08:00,VALID,915.789,VALID,0,VALID,98.4158,VALID,0.0169808,VALID,18.9068,VALID,102,VALID,0.89363,
2000-09-20, 02:09:00,VALID,915.797,VALID,0,VALID,98.5468,VALID,0,VALID,18.9456,VALID,96,VALID,0.925564,
2000-09-20, 02:10:00,VALID,915.8,VALID,0,VALID,98.59,VALID,0,VALID,18.9846,VALID,79,VALID,0.538194,
2000-09-20, 02:11:00,VALID,915.782,VALID,0,VALID,98.5989,VALID,0,VALID,18.9975,VALID,70,VALID,0.498598,
2000-09-20, 02:12:00,VALID,915.782,VALID,0,VALID,98.59,VALID,0.0339617,VALID,18.9936,VALID,39,VALID,0.47973,
2000-09-20, 02:13:00,VALID,915.783,VALID,0,VALID,98.5761,VALID,0.0169808,VALID,19.0067,VALID,32,VALID,0.428285,
2000-09-20, 02:14:00,VALID,915.798,VALID,0,VALID,98.59,VALID,0,VALID,19.0203,VALID,9,VALID,0.415502,
2000-09-20, 02:15:00,VALID,915.783,VALID,0,VALID,98.6015,VALID,-0.0169808,VALID,19.007,VALID,337,VALID,0.338224,
2000-09-20, 02:16:00,VALID,915.779,VALID,0,VALID,98.6028,VALID,0,VALID,19.0074,VALID,308,VALID,0.532051,
2000-09-20, 02:17:00,VALID,915.782,VALID,0,VALID,98.5989,VALID,0,VALID,18.9908,VALID,291,VALID,0.474029,
2000-09-20, 02:18:00,VALID,915.785,VALID,0,VALID,98.604,VALID,0,VALID,18.9578,VALID,269,VALID,0.516578,
2000-09-20, 02:19:00,VALID,915.783,VALID,0,VALID,98.6295,VALID,0,VALID,18.9587,VALID,264,VALID,0.294271,
2000-09-20, 02:20:00,VALID,915.781,VALID,0,VALID,98.6422,VALID,-0.0169808,VALID,18.9394,VALID,268,VALID,0.0078125,
2000-09-20, 02:21:00,VALID,915.774,VALID,0,VALID,98.6371,VALID,0,VALID,18.9294,VALID,268,VALID,0,
2000-09-20, 02:22:00,VALID,915.773,VALID,0,VALID,98.6485,VALID,0,VALID,18.92,VALID,268,VALID,0,
2000-09-20, 02:23:00,VALID,915.788,VALID,0,VALID,98.6524,VALID,-0.0339617,VALID,18.9004,VALID,268,VALID,0,
2000-09-20, 02:24:00,VALID,915.811,VALID,0,VALID,98.6562,VALID,0,VALID,18.8845,VALID,268,VALID,0,
2000-09-20, 02:25:00,VALID,915.818,VALID,0,VALID,98.6422,VALID,-0.0339617,VALID,18.8656,VALID,268,VALID,0,
2000-09-20, 02:26:00,VALID,915.821,VALID,0,VALID,98.5811,VALID,0,VALID,18.8037,VALID,268,VALID,0,
2000-09-20, 02:27:00,VALID,915.835,VALID,0,VALID,98.5977,VALID,-0.0679233,VALID,18.7813,VALID,268,VALID,0.14227,
2000-09-20, 02:28:00,VALID,915.844,VALID,0,VALID,98.6193,VALID,0,VALID,18.7585,VALID,268,VALID,0.428711,
2000-09-20, 02:29:00,VALID,915.846,VALID,0,VALID,98.6346,VALID,-0.0169808,VALID,18.7327,VALID,267,VALID,0.423725,
2000-09-20, 02:30:00,VALID,915.851,VALID,0,VALID,98.6473,VALID,-0.0339617,VALID,18.6971,VALID,267,VALID,0.421875,
2000-09-20, 02:31:00,VALID,915.842,VALID,0,VALID,98.6422,VALID,0.0169808,VALID,18.6713,VALID,267,VALID,0.298828,
2000-09-20, 02:32:00,VALID,915.835,VALID,0,VALID,98.6727,VALID,0,VALID,18.645,VALID,268,VALID,0.389423,
2000-09-20, 02:33:00,VALID,915.823,VALID,0,VALID,98.7083,VALID,0,VALID,18.6558,VALID,60,VALID,0.359797,
2000-09-20, 02:34:00,VALID,915.825,VALID,0,VALID,98.7592,VALID,-0.0169808,VALID,18.6455,VALID,89,VALID,0.0366753,
2000-09-20, 02:35:00,VALID,915.82,VALID,0,VALID,98.7859,VALID,-0.0169808,VALID,18.6487,VALID,89,VALID,0,
2000-09-20, 02:36:00,VALID,915.83,VALID,0,VALID,98.8139,VALID,0,VALID,18.6618,VALID,89,VALID,0,
2000-09-20, 02:37:00,VALID,915.833,VALID,0,VALID,98.8062,VALID,0,VALID,18.6455,VALID,89,VALID,0,
2000-09-20, 02:38:00,VALID,915.854,VALID,0,VALID,98.8024,VALID,0.0169808,VALID,18.6492,VALID,89,VALID,0,
2000-09-20, 02:39:00,VALID,915.856,VALID,0,VALID,98.8278,VALID,0,VALID,18.6325,VALID,89,VALID,0,
2000-09-20, 02:40:00,VALID,915.862,VALID,0,VALID,98.8266,VALID,0,VALID,18.6258,VALID,89,VALID,0,
2000-09-20, 02:41:00,VALID,915.867,VALID,0,VALID,98.8177,VALID,0,VALID,18.6035,VALID,89,VALID,0,
2000-09-20, 02:42:00,VALID,915.87,VALID,0,VALID,98.7668,VALID,0.0509425,VALID,18.5481,VALID,89,VALID,0,
2000-09-20, 02:43:00,VALID,915.866,VALID,0,VALID,98.7426,VALID,0,VALID,18.51,VALID,89,VALID,0,
2000-09-20, 02:44:00,VALID,915.856,VALID,0,VALID,98.7821,VALID,-0.0169808,VALID,18.4974,VALID,89,VALID,0,
2000-09-20, 02:45:00,VALID,915.834,VALID,0,VALID,98.8393,VALID,0.0679233,VALID,18.5093,VALID,89,VALID,0,
2000-09-20, 02:46:00,VALID,915.817,VALID,0,VALID,98.9143,VALID,0.0509425,VALID,18.5156,VALID,89,VALID,0,
2000-09-20, 02:47:00,VALID,915.815,VALID,0,VALID,99.0109,VALID,0.0509425,VALID,18.5576,VALID,89,VALID,0,
2000-09-20, 02:48:00,VALID,915.81,VALID,0,VALID,98.9525,VALID,0.0679233,VALID,18.5541,VALID,197,VALID,0,
2000-09-20, 02:49:00,VALID,915.807,VALID,0,VALID,98.9156,VALID,0.0679233,VALID,18.5285,VALID,203,VALID,0.000616776,
2000-09-20, 02:50:00,VALID,915.813,VALID,0,VALID,98.9652,VALID,0.0509425,VALID,18.5086,VALID,203,VALID,0.0198864,
2000-09-20, 02:51:00,VALID,915.82,VALID,0,VALID,99.0313,VALID,0.0849042,VALID,18.5287,VALID,204,VALID,0,
2000-09-20, 02:52:00,VALID,915.823,VALID,0,VALID,99.0516,VALID,0.0679233,VALID,18.5511,VALID,204,VALID,0,
2000-09-20, 02:53:00,VALID,915.826,VALID,0,VALID,99.0669,VALID,0.0679233,VALID,18.5642,VALID,203,VALID,0,
2000-09-20, 02:54:01,VALID,915.832,VALID,0,VALID,99.0529,VALID,0.0679233,VALID,18.5573,VALID,203,VALID,0,
2000-09-20, 02:55:00,VALID,915.835,VALID,0,VALID,99.0415,VALID,0.0679233,VALID,18.5578,VALID,203,VALID,0,
2000-09-20, 02:56:00,VALID,915.836,VALID,0,VALID,99.044,VALID,0.101885,VALID,18.5412,VALID,203,VALID,0.00580929,
2000-09-20, 02:57:00,VALID,915.85,VALID,0,VALID,99.0644,VALID,0.101885,VALID,18.5409,VALID,202,VALID,0.361275,
2000-09-20, 02:58:00,VALID,915.845,VALID,0,VALID,99.1254,VALID,0.0679233,VALID,18.5479,VALID,199,VALID,0.542352,
2000-09-20, 02:59:00,VALID,915.854,VALID,0,VALID,99.2106,VALID,0.0679233,VALID,18.603,VALID,202,VALID,0.289648,
2000-09-20, 03:00:00,VALID,915.851,VALID,0,VALID,99.2017,VALID,0.0849042,VALID,18.6194,VALID,187,VALID,0.077691,
2000-09-20, 03:01:01,VALID,915.849,VALID,0,VALID,99.0822,VALID,0.0169808,VALID,18.5509,VALID,145,VALID,0.428421,
2000-09-20, 03:02:00,VALID,915.833,VALID,0,VALID,99.1559,VALID,0.0679233,VALID,18.5416,VALID,151,VALID,0.394326,
2000-09-20, 03:03:00,VALID,915.842,VALID,0,VALID,99.3085,VALID,0.0849042,VALID,18.6256,VALID,167,VALID,0.322545,
2000-09-20, 03:04:00,VALID,915.821,VALID,0,VALID,99.3568,VALID,0.0849042,VALID,18.693,VALID,186,VALID,0.13049,
2000-09-20, 03:05:00,VALID,915.827,VALID,0,VALID,99.3403,VALID,0.0849042,VALID,18.7347,VALID,190,VALID,0.0485197,
2000-09-20, 03:06:00,VALID,915.817,VALID,0,VALID,99.3123,VALID,0.101885,VALID,18.7382,VALID,193,VALID,0,
2000-09-20, 03:07:00,VALID,915.809,VALID,0,VALID,99.2945,VALID,0.101885,VALID,18.7345,VALID,195,VALID,0,
2000-09-20, 03:08:00,VALID,915.78,VALID,0,VALID,99.2678,VALID,0.0849042,VALID,18.7414,VALID,204,VALID,0,
2000-09-20, 03:09:00,VALID,915.764,VALID,0,VALID,99.2665,VALID,0.0849042,VALID,18.7449,VALID,209,VALID,0,
2000-09-20, 03:10:00,VALID,915.743,VALID,0,VALID,99.2462,VALID,0.0849042,VALID,18.7349,VALID,209,VALID,0,
2000-09-20, 03:11:00,VALID,915.727,VALID,0,VALID,99.2042,VALID,0.101885,VALID,18.7089,VALID,209,VALID,0,
2000-09-20, 03:12:00,VALID,915.716,VALID,0,VALID,99.2042,VALID,0.0679233,VALID,18.6766,VALID,220,VALID,0,
2000-09-20, 03:13:00,VALID,915.704,VALID,0,VALID,99.2169,VALID,0.101885,VALID,18.654,VALID,232,VALID,0,
2000-09-20, 03:14:00,VALID,915.713,VALID,0,VALID,99.2157,VALID,0.0849042,VALID,18.6381,VALID,227,VALID,0,
2000-09-20, 03:15:01,VALID,915.703,VALID,0,VALID,99.2233,VALID,0,VALID,18.6263,VALID,220,VALID,0,
2000-09-20, 03:16:00,VALID,915.695,VALID,0,VALID,99.2627,VALID,0,VALID,18.633,VALID,222,VALID,0.453526,
2000-09-20, 03:17:00,VALID,915.7,VALID,0,VALID,99.311,VALID,0,VALID,18.6489,VALID,215,VALID,1.08042,
2000-09-20, 03:18:00,VALID,915.71,VALID,0,VALID,99.3187,VALID,0,VALID,18.6715,VALID,200,VALID,0.756641,
2000-09-20, 03:19:01,VALID,915.71,VALID,0,VALID,99.3301,VALID,-0.0339617,VALID,18.6782,VALID,206,VALID,0.574013,
2000-09-20, 03:20:01,VALID,915.718,VALID,0,VALID,99.3479,VALID,0,VALID,18.7043,VALID,217,VALID,0.489583,
2000-09-20, 03:21:00,VALID,915.719,VALID,0,VALID,99.3708,VALID,-0.0339617,VALID,18.717,VALID,211,VALID,0.636102,
2000-09-20, 03:22:00,VALID,915.713,VALID,0,VALID,99.3861,VALID,-0.0169808,VALID,18.7396,VALID,202,VALID,0.51582,
2000-09-20, 03:23:00,VALID,915.715,VALID,0,VALID,99.3657,VALID,0,VALID,18.7428,VALID,172,VALID,0.60332,
2000-09-20, 03:24:01,VALID,915.707,VALID,0,VALID,99.3632,VALID,0,VALID,18.7297,VALID,166,VALID,0.659455,
2000-09-20, 03:25:00,VALID,915.711,VALID,0,VALID,99.409,VALID,-0.0169808,VALID,18.7523,VALID,170,VALID,0.57278,
2000-09-20, 03:26:00,VALID,915.713,VALID,0,VALID,99.4255,VALID,-0.0169808,VALID,18.7878,VALID,172,VALID,0.410979,
2000-09-20, 03:27:00,VALID,915.709,VALID,0,VALID,99.4166,VALID,-0.0169808,VALID,18.7779,VALID,188,VALID,0.276442,
2000-09-20, 03:28:01,VALID,915.713,VALID,0,VALID,99.4268,VALID,0,VALID,18.7781,VALID,196,VALID,0.21136,
2000-09-20, 03:29:00,VALID,915.714,VALID,0,VALID,99.4484,VALID,0,VALID,18.7744,VALID,169,VALID,0.386418,
2000-09-20, 03:30:00,VALID,915.719,VALID,0,VALID,99.456,VALID,-0.0169808,VALID,18.7972,VALID,152,VALID,0.291016,
2000-09-20, 03:31:01,VALID,915.718,VALID,0,VALID,99.442,VALID,-0.0169808,VALID,18.7876,VALID,168,VALID,0,
2000-09-20, 03:32:00,VALID,915.697,VALID,0,VALID,99.4611,VALID,0,VALID,18.7878,VALID,187,VALID,0,
2000-09-20, 03:33:00,VALID,915.691,VALID,0,VALID,99.4713,VALID,0,VALID,18.8042,VALID,222,VALID,0.407517,
2000-09-20, 03:34:00,VALID,915.666,VALID,0,VALID,99.4751,VALID,0.0169808,VALID,18.8233,VALID,223,VALID,0.522035,
2000-09-20, 03:35:00,VALID,915.651,VALID,0,VALID,99.4751,VALID,-0.0169808,VALID,18.8298,VALID,226,VALID,0.443873,
2000-09-20, 03:36:01,VALID,915.646,VALID,0,VALID,99.4814,VALID,-0.0339617,VALID,18.8395,VALID,235,VALID,0.384909,
2000-09-20, 03:37:00,VALID,915.639,VALID,0,VALID,99.4713,VALID,-0.0169808,VALID,18.8425,VALID,201,VALID,0.326723,
2000-09-20, 03:38:01,VALID,915.632,VALID,0,VALID,99.4496,VALID,-0.0169808,VALID,18.8429,VALID,189,VALID,0.702069,